Regional Weather Roundup
Issued by NWS

Home | Current Version | Previous Version | Text Only | Print | Product List | Glossary Off
Versions: 1 2 3 4 5 6 7 8 9 10 11 12 13 14 15 16 17 18 19 20 21 22 23 24 25 26 27 28 29 30 31 32 33 34 35 36 37 38 39 40 41 42 43 44 45 46 47 48 49 50

000
ASUS43 KIND 291809
RWRIN

WEATHER ROUNDUP FOR INDIANA
NATIONAL WEATHER SERVICE INDIANAPOLIS IN
200 PM EDT SAT APR 29 2017

NOTE: "FAIR" INDICATES FEW OR NO CLOUDS BELOW 12,000 FEET WITH NO
SIGNIFICANT WEATHER AND/OR OBSTRUCTIONS TO VISIBILITY.

* - STATION DOES NOT REPORT WEATHER SUCH AS PRECIPITATION OR FOG.

+ - STATION NOT QUALITY CONTROLLED BY THE NATIONAL WEATHER SERVICE.
    USE DATA WITH CAUTION...ESPECIALLY DEWPOINT AND RELATIVE
    HUMIDITY OBSERVATIONS.

INZ001>003-010>013-019-020-291900-
NORTHWEST INDIANA

CITY           SKY/WX    TMP DP  RH WIND       PRES   REMARKS
GARY /AIRPORT/ LGT RAIN  45  41  87 N12G23    30.18F
KNOX *+        CLOUDY    50  36  57 NE12      30.13F
LA PORTE +     RAIN      52  47  85 NE9G17    30.15F
6HR MIN TEMP:  48; 6HR MAX TEMP:  53;

MICHIGAN CITY+ LGT RAIN  45  45 100 N7        30.16F
MONTICELLO +   LGT RAIN  52  50  93 E9        30.09R
6HR MIN TEMP:  50; 6HR MAX TEMP:  52; 6HR PCP:  0.11;

RENSSELAER +   LGT RAIN  50  46  87 NW9G24    30.11F
VALPARAISO     CLOUDY    47  44  90 N9        30.14F
6HR MIN TEMP:  47; 6HR MAX TEMP:  50; 6HR PCP:  0.01;


$$

LMZ046-743>745-291900-
SOUTHERN LAKE MICHIGAN

STATION/POSITION TIME  TEMP    WIND        PRES    WAVE
                       AIR SEA DIR/SP/G            HT
                 (UTC) (F)     (DEG/KT/KT) (MB)    (FT)
BURNS HARBOR     1740   44      30/ 18/ 23 1021.7S
MICHIGAN CITY    1740   44      10/ 20/ 23   N/A
5NW MICH CITY    1800   43 47                N/A     6

$$

INZ004-005-014>016-021>024-291900-
NORTH CENTRAL INDIANA

CITY           SKY/WX    TMP DP  RH WIND       PRES   REMARKS
ELKHART        CLOUDY    52  46  82 NE15      30.16F
GOSHEN         LGT RAIN  50  46  86 NE14      30.13F FOG
6HR MIN TEMP:  49; 6HR MAX TEMP:  52; 6HR PCP:  0.04;

LOGANSPORT +   CLOUDY    54  52  94 E10       30.09S
PERU/GRISSOM   CLOUDY    55  55 100 NE13      30.10S
6HR MIN TEMP:  54; 6HR MAX TEMP:  55; 6HR PCP:  0.25;

ROCHESTER +    LGT RAIN  54  50  87 E10       30.12R
SOUTH BEND     LGT RAIN  51  47  86 NE8       30.15F
6HR MIN TEMP:  48; 6HR MAX TEMP:  53; 6HR PCP:  0.02;

WARSAW +       LGT RAIN  50  46  87 E12G18    30.12F

$$

INZ006>009-017-018-025>027-291900-
NORTHEAST INDIANA

CITY           SKY/WX    TMP DP  RH WIND       PRES   REMARKS
ANGOLA *+      CLOUDY    48  46  93 E9        30.16F
AUBURN +       LGT RAIN  48  45  87 NE15G21   30.17S
FORT WAYNE     RAIN      51  49  92 NE17      30.11F FOG
6HR MIN TEMP:  51; 6HR MAX TEMP:  56; 6HR PCP:  0.17;

HUNTINGTON +   LGT RAIN N/A N/A N/A NE12G17   30.13F
                                      6HR PCP:  0.15;

KENDALLVILLE + LGT RAIN  48  47  96 NE14      30.15F

$$

INZ028-029-035-036-043>045-051>053-291900-
WEST CENTRAL INDIANA

CITY           SKY/WX    TMP DP  RH WIND       PRES   REMARKS
CRAWFORDSVL +  CLOUDY    59  59 100 NE7       30.05F
6HR MIN TEMP:  52; 6HR MAX TEMP:  59; 6HR PCP:  0.47;

GREENCASTLE +  CLOUDY    64  63  94 SE6       30.04F
LAFAYETTE      CLOUDY    55  55 100 NE10      30.06F
6HR MIN TEMP:  50; 6HR MAX TEMP:  55; 6HR PCP:  0.39;

TERRE HAUTE    CLOUDY    68  64  87 E7        30.00F
6HR MIN TEMP:  57; 6HR MAX TEMP:  68; 6HR PCP:  1.04;


$$

INZ030>032-037>040-046>048-054>057-064-065-291900-
CENTRAL INDIANA

CITY           SKY/WX    TMP DP  RH WIND       PRES   REMARKS
CP ATTERBURY + CLOUDY    70  64  83 SE8       30.05S
COLUMBUS       CLOUDY    72  64  78 SE10      30.05F
FISHERS *+     CLOUDY    63  63 100 CALM      30.06S
FRANKFORT +    CLOUDY    60  58  92 NE8       30.08F
6HR MIN TEMP:  56; 6HR MAX TEMP:  61; 6HR PCP:  0.47;

GREENWOOD *+   PTSUNNY   71  65  83 SE8       30.04F
INDIANAPOLIS   CLOUDY    66  64  93 SE3       30.03F
6HR MIN TEMP:  57; 6HR MAX TEMP:  66; 6HR PCP:  0.49;

-EAGLE CREEK   CLOUDY    65  62  90 VRB3      30.04F
6HR MIN TEMP:  57; 6HR MAX TEMP:  65; 6HR PCP:  0.48;

KOKOMO +       CLOUDY    57  55  93 NE9       30.10F
6HR MIN TEMP:  54; 6HR MAX TEMP:  57; 6HR PCP:  0.32;

MARION +       CLOUDY    57  55  94 NE10      30.10R FOG
MT COMFORT *+  PTSUNNY   64  63  94 SE6       30.05S
SHELBYVILLE    CLOUDY    72  63  73 SE8       30.03F
6HR MIN TEMP:  60; 6HR MAX TEMP:  72;

ZIONSVILLE +   CLOUDY    60  59  96 E3        30.07S
6HR MIN TEMP:  54; 6HR MAX TEMP:  61; 6HR PCP:  0.51;


$$

INZ033-034-041-042-049-050-058-059-291900-
EAST CENTRAL INDIANA

CITY           SKY/WX    TMP DP  RH WIND       PRES   REMARKS
MUNCIE         CLOUDY    62  59  90 E12       30.06F
6HR MIN TEMP:  56; 6HR MAX TEMP:  62; 6HR PCP:  0.51;

RICHMOND +     CLOUDY    64  63  94 SE9       30.07F

$$

INZ060-061-067>069-081>083-085>088-291900-
SOUTHWEST INDIANA

CITY           SKY/WX    TMP DP  RH WIND       PRES   REMARKS
EVANSVILLE     PTSUNNY   78  64  61 E14G23    29.97F
6HR MIN TEMP:  65; 6HR MAX TEMP:  78; 6HR PCP:  1.25;

WASHINGTON +   PTSUNNY   74  62  66 SE13      29.99F
6HR MIN TEMP:  61; 6HR MAX TEMP:  74; 6HR PCP:  0.21;


$$

INZ062-063-066-070>080-084-089>092-291900-
SOUTH CENTRAL AND SOUTHEAST INDIANA

CITY           SKY/WX    TMP DP  RH WIND       PRES   REMARKS
BLOOMINGTON    CLOUDY    71  62  73 SE12      30.02F
6HR MIN TEMP:  61; 6HR MAX TEMP:  71; 6HR PCP:  0.39;

MADISON *+     CLOUDY    73  63  68 E10       30.07F
NORTH VERNON + CLOUDY    73  64  73 E6        30.05F
SEYMOUR +      CLOUDY   N/A N/A N/A SE7       30.04F

$$





USA.gov is the U.S. government's official web portal to all federal, state and local government web resources and services.